Total_Precipitation_Accumulation
0.10 0.05 0.06 0.05 0.09 0.10 0.11 0.15 0.17 0.18 0.16 0.15 0.14 0.13 0.14 0.13 0.11 0.10 0.09 0.12 0.17 0.23 0.26 0.28 0.27 0.25 0.25 0.25 0.20 0.16 0.15 0.15 0.19 0.20 0.25 0.30 0.35 0.37 0.40 0.40 0.48 0.47 0.31
0.08 0.05 0.07 0.05 0.06 0.08 0.10 0.14 0.16 0.16 0.17 0.18 0.19 0.19 0.17 0.13 0.10 0.10 0.10 0.14 0.20 0.25 0.25 0.25 0.24 0.21 0.22 0.19 0.14 0.13 0.13 0.16 0.26 0.34 0.39 0.43 0.48 0.46 0.43 0.39 0.51 0.59 0.36
0.08 0.06 0.05 0.05 0.05 0.07 0.10 0.13 0.15 0.13 0.15 0.17 0.18 0.18 0.15 0.11 0.10 0.10 0.10 0.14 0.19 0.21 0.19 0.16 0.14 0.14 0.15 0.12 0.11 0.11 0.12 0.19 0.35 0.55 0.88 0.83 0.66 0.51 0.48 0.42 0.35 0.30 0.31
0.09 0.06 0.04 0.06 0.06 0.07 0.07 0.11 0.17 0.16 0.15 0.15 0.16 0.16 0.14 0.13 0.13 0.13 0.13 0.15 0.18 0.18 0.14 0.11 0.11 0.11 0.12 0.11 0.10 0.11 0.15 0.25 0.48 0.81 1.44 1.28 0.96 0.78 0.65 0.50 0.32 0.24 0.27
0.08 0.06 0.07 0.08 0.09 0.10 0.09 0.08 0.14 0.17 0.18 0.18 0.18 0.17 0.17 0.17 0.16 0.15 0.16 0.18 0.18 0.18 0.19 0.18 0.15 0.12 0.11 0.11 0.12 0.16 0.25 0.40 0.67 1.11 1.72 1.64 1.44 1.14 0.72 0.51 0.42 0.33 0.31
0.13 0.09 0.10 0.10 0.11 0.14 0.14 0.14 0.15 0.17 0.19 0.21 0.21 0.21 0.20 0.20 0.19 0.17 0.17 0.18 0.19 0.20 0.22 0.25 0.20 0.13 0.11 0.12 0.14 0.21 0.32 0.53 0.77 1.22 1.80 1.76 1.55 1.25 0.75 0.59 0.50 0.41 0.35
0.23 0.21 0.16 0.15 0.14 0.15 0.17 0.22 0.25 0.20 0.21 0.24 0.24 0.22 0.22 0.22 0.21 0.20 0.20 0.19 0.21 0.24 0.26 0.22 0.17 0.12 0.11 0.12 0.16 0.23 0.37 0.66 0.93 1.50 1.83 1.73 1.79 1.33 0.86 0.72 0.62 0.50 0.38
0.35 0.30 0.29 0.23 0.16 0.17 0.21 0.24 0.30 0.32 0.32 0.31 0.29 0.27 0.27 0.25 0.24 0.25 0.26 0.26 0.29 0.33 0.30 0.20 0.13 0.11 0.10 0.11 0.15 0.23 0.39 0.58 0.79 1.40 1.80 1.64 1.47 1.21 1.01 0.86 0.68 0.55 0.45
0.45 0.47 0.45 0.32 0.28 0.29 0.31 0.31 0.35 0.40 0.40 0.40 0.40 0.39 0.35 0.34 0.33 0.32 0.32 0.32 0.35 0.36 0.29 0.21 0.16 0.13 0.12 0.12 0.13 0.19 0.32 0.57 0.82 1.13 1.30 1.56 1.41 1.36 1.14 0.83 0.62 0.50 0.45
0.67 0.67 0.67 0.68 0.61 0.48 0.45 0.50 0.49 0.53 0.51 0.44 0.41 0.43 0.42 0.38 0.35 0.35 0.32 0.34 0.35 0.35 0.31 0.28 0.27 0.22 0.17 0.14 0.15 0.19 0.29 0.40 0.50 0.93 1.49 1.49 1.35 1.43 1.35 1.00 0.73 0.57 0.47
0.89 0.87 0.80 0.87 0.85 0.70 0.61 0.56 0.64 0.67 0.64 0.58 0.49 0.48 0.46 0.53 0.58 0.53 0.45 0.49 0.48 0.47 0.44 0.42 0.38 0.32 0.27 0.21 0.23 0.27 0.27 0.32 0.57 1.10 1.63 1.39 1.37 1.51 1.51 1.27 0.96 0.75 0.60
1.09 1.07 1.03 0.91 0.84 0.81 0.73 0.75 0.83 0.79 0.76 0.69 0.74 0.71 0.74 1.01 1.12 0.92 0.96 0.88 0.81 0.74 0.65 0.57 0.50 0.44 0.35 0.28 0.35 0.38 0.31 0.42 0.74 1.29 1.34 1.23 1.35 1.58 1.75 1.53 1.20 0.96 0.83
1.48 1.28 1.34 1.22 1.05 1.23 1.32 1.16 1.13 1.11 1.11 1.03 1.16 1.19 1.26 1.40 1.39 1.33 1.45 1.28 1.18 1.08 1.00 0.99 0.74 0.59 0.54 0.55 0.54 0.52 0.51 0.56 0.74 1.02 1.18 1.24 1.42 1.70 1.91 1.71 1.41 1.24 1.17
1.96 1.75 1.63 1.64 1.54 1.63 1.91 1.74 1.52 1.39 1.41 1.43 1.54 1.50 1.74 1.83 1.78 1.72 1.78 1.68 1.66 1.61 1.61 1.46 1.24 1.05 0.97 0.83 0.72 0.74 0.75 0.74 0.87 1.09 1.24 1.28 1.42 1.73 2.01 1.94 1.70 1.49 1.40
2.19 2.10 1.86 1.91 1.94 2.05 2.25 2.11 1.91 1.96 1.76 1.70 1.87 1.84 1.96 1.99 1.96 2.04 1.96 1.95 1.85 1.82 1.78 1.62 1.52 1.48 1.39 1.24 1.02 0.98 1.01 0.95 1.04 1.22 1.30 1.34 1.36 1.62 1.99 2.20 2.09 1.82 1.75
2.13 2.23 2.29 2.23 2.23 2.12 2.20 2.19 2.02 1.95 2.05 1.89 1.86 1.89 1.87 1.95 2.17 2.23 2.22 2.20 2.15 2.10 2.17 1.97 1.76 1.85 1.71 1.63 1.43 1.34 1.28 1.28 1.29 1.42 1.64 1.64 1.43 1.43 1.73 2.10 2.24 2.19 2.15
2.10 2.15 2.29 2.29 2.34 2.26 2.22 2.24 2.18 2.08 2.07 2.13 2.17 2.21 2.04 1.99 2.25 2.34 2.52 2.48 2.42 2.35 2.39 2.34 2.18 2.21 2.00 1.88 1.75 1.62 1.57 1.65 1.67 1.62 1.76 1.93 1.74 1.63 1.60 1.75 1.97 2.13 2.22
1.77 1.92 2.05 2.15 2.21 2.44 2.54 2.63 2.50 2.60 2.59 2.51 2.38 2.38 2.25 2.21 2.37 2.59 2.72 2.72 2.73 2.63 2.70 2.79 2.72 2.53 2.39 2.21 2.03 1.77 1.68 1.80 1.84 1.85 1.88 2.01 2.16 2.02 1.89 1.74 1.79 1.92 2.12
1.55 1.85 2.03 2.17 2.37 2.54 2.76 2.97 2.96 3.09 3.02 2.95 2.87 2.76 2.82 2.88 2.80 2.92 3.06 3.12 3.12 3.16 3.15 3.00 3.15 2.96 2.86 2.68 2.31 2.08 1.83 1.79 1.86 1.81 1.88 1.88 2.01 2.06 2.08 1.97 1.82 1.85 2.04
1.58 1.87 2.13 2.33 2.66 3.01 3.12 3.29 3.22 3.39 3.49 3.56 3.66 3.53 3.39 3.47 3.46 3.56 3.53 3.56 3.58 3.64 3.49 3.47 3.49 3.24 3.02 2.97 2.53 2.31 2.12 1.93 1.92 1.90 1.88 1.91 1.84 1.76 1.84 1.95 2.03 1.84 1.95
2.08 2.15 2.29 2.52 2.78 2.96 3.27 3.61 3.77 3.85 4.04 4.16 4.24 4.34 4.31 4.28 4.40 4.46 4.34 4.23 4.08 3.96 3.80 3.70 3.53 3.33 3.10 3.02 2.87 2.50 2.05 1.76 1.72 1.64 1.68 1.80 1.80 1.73 1.78 1.86 1.92 1.86 1.76
2.40 2.41 2.56 2.79 3.00 3.19 3.59 4.09 4.50 4.64 4.74 4.77 4.79 4.98 5.08 5.12 5.30 5.37 5.30 5.07 4.82 4.50 4.06 3.74 3.55 3.39 3.10 3.11 3.06 2.95 2.38 1.96 1.63 1.33 1.41 1.47 1.53 1.64 1.61 1.61 1.71 1.80 1.74
2.39 2.49 2.68 2.98 3.33 3.76 4.26 4.77 5.19 5.44 5.49 5.42 5.14 5.24 5.40 5.37 5.44 5.63 5.59 5.32 4.94 4.38 3.88 3.71 3.63 3.50 3.31 3.23 3.08 3.12 2.68 2.26 1.91 1.49 1.27 1.20 1.26 1.30 1.31 1.37 1.45 1.58 1.56
2.33 2.56 2.74 3.06 3.62 4.08 4.47 5.12 5.65 5.94 6.14 6.23 5.99 5.68 5.52 5.34 5.22 5.14 4.99 4.58 4.15 3.83 3.57 3.47 3.46 3.28 3.25 3.15 3.07 2.77 2.53 2.27 2.05 1.71 1.38 1.19 1.19 1.19 1.18 1.18 1.26 1.46 1.54
2.25 2.35 2.50 2.96 3.56 4.26 4.91 5.44 5.92 6.30 6.47 6.41 6.02 5.64 5.20 4.84 4.42 4.08 3.74 3.48 3.36 3.18 2.98 2.88 2.85 2.79 2.65 2.59 2.59 2.54 2.47 2.24 1.94 1.73 1.52 1.34 1.32 1.21 1.20 1.25 1.32 1.40 1.51
1.91 2.12 2.33 2.69 3.39 4.13 4.77 5.32 5.72 6.05 6.08 5.77 5.30 4.82 4.51 4.14 3.68 3.25 3.01 2.76 2.61 2.45 2.25 2.15 2.14 2.20 2.26 2.29 2.32 2.28 2.24 2.20 2.07 1.99 1.84 1.64 1.50 1.45 1.35 1.30 1.37 1.45 1.60